Weather History for KIWD - January, 2013

Change the Weather History Date:

Sunday, January 20, 2013

  Actual Average Record
Temperature  
Mean Temperature 1 °F -  
Max Temperature 6 °F 18 °F 26 °F (2002)
Min Temperature -4 °F 5 °F -14 °F (2008)
Degree Days  
Heating Degree Days 64    
Moisture  
Dew Point -7 °F    
Average Humidity 71    
Maximum Humidity 78    
Minimum Humidity 60    
Precipitation  
Precipitation 0.00 in - - ()
Sea Level Pressure  
Sea Level Pressure 30.09 in    
Wind  
Wind Speed 15 mph (West)    
Max Wind Speed 20 mph    
Max Gust Speed 30 mph    
Visibility 5 miles    
Events      
Averages and records for this station are not official NWS values.
T = Trace of Precipitation, MM = Missing Value Source: NWS Daily Summary

Daily Weather History Graph

Daily Weather History Graph

Search for Another Location

Airport or City:

Trip Planner

Search our weather history database for the weather conditions in past years. The results will help you decide how hot, cold, wet, or windy it might be!

Date:

Astronomy

Jan. 20, 2013 Rise Set
Actual Time 7:36 AM CST 4:47 PM CST
Civil Twilight 7:03 AM CST 5:20 PM CST
Nautical Twilight 6:25 AM CST 5:57 PM CST
Astronomical Twilight 5:50 AM CST 6:33 PM CST
Moon 11:49 AM CST (1/20) 2:06 AM CST (1/20)
Length of Visible Light 10h 17m
Length of Day
9h 10m
Waxing Gibbous, 66% of the Moon is Illuminated
Jan 20
Waxing Gibbous
Jan 26
Full
Feb 3
Last Quarter
Feb 10
New
Feb 17
First Quarter

Hourly Weather History & Observations

Time (CST) Temp. Windchill Dew Point Humidity Pressure Visibility Wind Dir Wind Speed Gust Speed Precip Events Conditions
12:15 AM 6.8 °F -12.4 °F -0.4 °F 72% 29.92 in 0.8 mi NW 18.4 mph 23.0 mph N/A   Overcast
12:35 AM 6.8 °F -11.8 °F -0.4 °F 72% 29.94 in 0.5 mi NW 17.3 mph 26.5 mph N/A   Overcast
12:55 AM 6.8 °F -11.8 °F -0.4 °F 72% 29.95 in 0.8 mi NW 17.3 mph 21.9 mph N/A   Overcast
1:15 AM 6.8 °F -10.7 °F -0.4 °F 72% 29.96 in 1.5 mi NW 15.0 mph 24.2 mph N/A   Overcast
1:35 AM 5.0 °F -13.6 °F -0.4 °F 78% 29.97 in 1.0 mi NW 16.1 mph 24.2 mph N/A   Overcast
1:55 AM 5.0 °F -14.2 °F -0.4 °F 78% 29.99 in 1.8 mi NW 17.3 mph 24.2 mph N/A   Overcast
2:15 AM 5.0 °F -14.7 °F -2.2 °F 72% 29.99 in 1.0 mi NW 18.4 mph 29.9 mph N/A   Overcast
2:35 AM 5.0 °F -12.3 °F -2.2 °F 72% 30.01 in 1.8 mi NW 13.8 mph 24.2 mph N/A   Overcast
2:55 AM 3.2 °F -17.6 °F -2.2 °F 78% 30.02 in 2.0 mi NW 19.6 mph 24.2 mph N/A   Overcast
3:15 AM 3.2 °F -12.2 °F -2.2 °F 78% 30.03 in 1.8 mi NW 10.4 mph - N/A   Overcast
3:35 AM 3.2 °F -15.3 °F -4.0 °F 72% 30.04 in 1.8 mi NW 15.0 mph 24.2 mph N/A   Overcast
3:55 AM 3.2 °F -13.9 °F -2.2 °F 78% 30.04 in 1.2 mi NW 12.7 mph 17.3 mph N/A   Overcast
4:15 AM 3.2 °F -11.3 °F -5.8 °F 66% 30.05 in 3.0 mi NW 9.2 mph 16.1 mph N/A   Overcast
4:35 AM 3.2 °F -15.3 °F -2.2 °F 78% 30.05 in 2.5 mi WNW 15.0 mph - N/A   Overcast
4:55 AM 3.2 °F -10.3 °F -5.8 °F 66% 30.06 in 2.0 mi WNW 8.1 mph - N/A   Overcast
5:15 AM 3.2 °F -13.1 °F -2.2 °F 78% 30.06 in 1.5 mi WNW 11.5 mph - N/A   Overcast
5:35 AM 1.4 °F -17.6 °F -7.6 °F 66% 30.07 in 1.0 mi West 15.0 mph - N/A   Overcast
5:55 AM 1.4 °F -18.2 °F -5.8 °F 72% 30.08 in 1.2 mi West 16.1 mph - N/A   Overcast
6:15 AM -0.4 °F -21.2 °F -7.6 °F 72% 30.09 in 1.0 mi West 17.3 mph - N/A   Overcast
6:35 AM -0.4 °F -21.2 °F -7.6 °F 72% 30.10 in 1.0 mi West 17.3 mph - N/A   Overcast
7:15 AM -0.4 °F -19.9 °F -7.6 °F 72% 30.12 in 1.0 mi WSW 15.0 mph - N/A   Overcast
7:35 AM -2.2 °F -22.9 °F -7.6 °F 78% 30.13 in 0.8 mi West 16.1 mph - N/A   Overcast
7:55 AM -2.2 °F -22.2 °F -9.4 °F 71% 30.14 in 0.8 mi WSW 15.0 mph - N/A   Overcast
8:15 AM -2.2 °F -22.9 °F -9.4 °F 71% 30.14 in 0.8 mi WSW 16.1 mph - N/A   Overcast
8:35 AM -2.2 °F -22.9 °F -9.4 °F 71% 30.14 in 0.8 mi WSW 16.1 mph - N/A   Overcast
8:55 AM -2.2 °F -22.9 °F -9.4 °F 71% 30.14 in 0.8 mi West 16.1 mph - N/A   Overcast
9:15 AM -2.2 °F -22.2 °F -7.6 °F 78% 30.14 in 0.8 mi West 15.0 mph - N/A   Overcast
9:35 AM -0.4 °F -18.4 °F -7.6 °F 72% 30.14 in 0.8 mi WSW 12.7 mph - N/A   Overcast
9:55 AM -0.4 °F -19.9 °F -7.6 °F 72% 30.15 in 0.8 mi West 15.0 mph - N/A   Overcast
10:15 AM -0.4 °F -18.4 °F -7.6 °F 72% 30.15 in 0.8 mi West 12.7 mph - N/A   Overcast
10:35 AM -0.4 °F -19.2 °F -7.6 °F 72% 30.16 in 0.8 mi WSW 13.8 mph - N/A   Overcast
10:55 AM -0.4 °F -19.2 °F -5.8 °F 78% 30.16 in 0.8 mi WSW 13.8 mph - N/A   Overcast
11:15 AM 1.4 °F -17.6 °F -5.8 °F 72% 30.16 in 0.5 mi West 15.0 mph 19.6 mph N/A   Overcast
11:35 AM 1.4 °F -17.6 °F -5.8 °F 72% 30.15 in 0.8 mi West 15.0 mph - N/A   Overcast
12:15 PM 1.4 °F -17.6 °F -5.8 °F 72% 30.15 in 2.5 mi WSW 15.0 mph - N/A   Overcast
12:35 PM 1.4 °F -19.4 °F -5.8 °F 72% 30.15 in 2.5 mi WSW 18.4 mph - N/A   Overcast
12:55 PM 1.4 °F -16.1 °F -7.6 °F 66% 30.14 in 6.0 mi West 12.7 mph - N/A   Scattered Clouds
1:15 PM 1.4 °F -16.9 °F -7.6 °F 66% 30.14 in 10.0 mi West 13.8 mph - N/A   Clear
1:35 PM 1.4 °F -16.9 °F -7.6 °F 66% 30.13 in 10.0 mi West 13.8 mph - N/A   Partly Cloudy
1:55 PM 1.4 °F -17.6 °F -7.6 °F 66% 30.13 in 10.0 mi West 15.0 mph - N/A   Scattered Clouds
2:15 PM 1.4 °F -17.6 °F -9.4 °F 61% 30.13 in 5.0 mi WSW 15.0 mph - N/A   Mostly Cloudy
2:35 PM 1.4 °F -16.9 °F -5.8 °F 72% 30.13 in 3.0 mi West 13.8 mph - N/A   Mostly Cloudy
2:55 PM 1.4 °F -15.3 °F -7.6 °F 66% 30.14 in 1.8 mi West 11.5 mph - N/A   Overcast
3:15 PM 1.4 °F -14.5 °F -5.8 °F 72% 30.14 in 1.8 mi WSW 10.4 mph - N/A   Overcast
3:35 PM 1.4 °F -13.5 °F -9.4 °F 61% 30.13 in 5.0 mi West 9.2 mph - N/A   Overcast
3:55 PM 1.4 °F -15.3 °F -7.6 °F 66% 30.13 in 9.0 mi West 11.5 mph - N/A   Mostly Cloudy
4:15 PM -0.4 °F -19.2 °F -9.4 °F 66% 30.13 in 10.0 mi WSW 13.8 mph - N/A   Partly Cloudy
4:35 PM -0.4 °F -16.7 °F -7.6 °F 72% 30.12 in 10.0 mi WSW 10.4 mph - N/A   Scattered Clouds
4:55 PM -0.4 °F -16.7 °F -11.2 °F 60% 30.12 in 10.0 mi WSW 10.4 mph - N/A   Scattered Clouds
5:15 PM -0.4 °F -13.4 °F -9.4 °F 66% 30.11 in 10.0 mi WSW 6.9 mph - N/A   Partly Cloudy
5:35 PM -2.2 °F -18.0 °F -11.2 °F 66% 30.11 in 10.0 mi WSW 9.2 mph - N/A   Clear
5:55 PM -2.2 °F -18.9 °F -11.2 °F 66% 30.11 in 10.0 mi WSW 10.4 mph - N/A   Clear
6:15 PM -2.2 °F -18.9 °F -9.4 °F 71% 30.11 in 5.0 mi WSW 10.4 mph - N/A   Scattered Clouds
6:35 PM -2.2 °F -18.0 °F -9.4 °F 71% 30.11 in 5.0 mi WSW 9.2 mph - N/A   Partly Cloudy
6:55 PM -2.2 °F -22.2 °F -13.0 °F 60% 30.10 in 7.0 mi WSW 15.0 mph - N/A   Clear
7:15 PM -2.2 °F -19.9 °F -7.6 °F 78% 30.10 in 7.0 mi WSW 11.5 mph - N/A   Clear
7:35 PM -2.2 °F -22.2 °F -9.4 °F 71% 30.09 in 10.0 mi WSW 15.0 mph - N/A   Clear
7:55 PM -2.2 °F -22.2 °F -9.4 °F 71% 30.09 in 8.0 mi WSW 15.0 mph - N/A   Partly Cloudy
8:15 PM -2.2 °F -23.5 °F -9.4 °F 71% 30.08 in 6.0 mi West 17.3 mph 21.9 mph N/A   Scattered Clouds
8:35 PM -2.2 °F -22.9 °F -9.4 °F 71% 30.08 in 10.0 mi WSW 16.1 mph - N/A   Partly Cloudy
8:55 PM -2.2 °F -22.9 °F -11.2 °F 66% 30.07 in 10.0 mi West 16.1 mph - N/A   Clear
9:15 PM -2.2 °F -22.2 °F -11.2 °F 66% 30.07 in 8.0 mi WSW 15.0 mph - N/A   Clear
9:35 PM -2.2 °F -20.7 °F -11.2 °F 66% 30.06 in 10.0 mi WSW 12.7 mph - N/A   Clear
9:55 PM -2.2 °F -22.2 °F -11.2 °F 66% 30.06 in 10.0 mi WSW 15.0 mph - N/A   Clear
10:15 PM -4.0 °F -23.7 °F -11.2 °F 71% 30.05 in 10.0 mi WSW 13.8 mph 20.7 mph N/A   Clear
10:35 PM -4.0 °F -23.0 °F -11.2 °F 71% 30.05 in 10.0 mi WSW 12.7 mph - N/A   Scattered Clouds
10:55 PM -4.0 °F -21.2 °F -9.4 °F 78% 30.05 in 10.0 mi WSW 10.4 mph - N/A   Overcast
11:15 PM -4.0 °F -23.0 °F -11.2 °F 71% 30.05 in 10.0 mi WSW 12.7 mph - N/A   Overcast
11:35 PM -4.0 °F -24.5 °F -11.2 °F 71% 30.04 in 10.0 mi WSW 15.0 mph - N/A   Overcast
11:55 PM -4.0 °F -23.0 °F -11.2 °F 71% 30.04 in 10.0 mi WSW 12.7 mph - N/A   Overcast